Year,Month,Day,Hour,Minute,Value (Times are PST for temperature in C)
2015,04,25,00,00,4.80
2015,04,25,00,01,4.80
2015,04,25,00,02,4.80
2015,04,25,00,03,4.80
2015,04,25,00,04,4.80
2015,04,25,00,05,4.80
2015,04,25,00,06,4.80
2015,04,25,00,07,4.80
2015,04,25,00,08,4.80
2015,04,25,00,09,4.80
2015,04,25,00,10,4.80
2015,04,25,00,11,4.80
2015,04,25,00,12,4.80
2015,04,25,00,13,4.80
2015,04,25,00,14,4.80
2015,04,25,00,15,4.80
2015,04,25,00,16,4.80
2015,04,25,00,17,4.80
2015,04,25,00,18,4.80
2015,04,25,00,19,4.80
2015,04,25,00,20,4.80
2015,04,25,00,21,4.80
2015,04,25,00,22,4.80
2015,04,25,00,23,4.80
2015,04,25,00,24,4.80
2015,04,25,00,25,4.80
2015,04,25,00,26,4.80
2015,04,25,00,27,4.80
2015,04,25,00,28,4.80
2015,04,25,00,29,4.80
2015,04,25,00,30,4.80
2015,04,25,00,31,4.80
2015,04,25,00,32,4.80
2015,04,25,00,33,4.80
2015,04,25,00,34,4.70
2015,04,25,00,35,4.70
2015,04,25,00,36,4.70
2015,04,25,00,37,4.70
2015,04,25,00,38,4.70
2015,04,25,00,39,4.70
2015,04,25,00,40,4.70
2015,04,25,00,41,4.60
2015,04,25,00,42,4.60
2015,04,25,00,43,4.60
2015,04,25,00,44,4.60
2015,04,25,00,45,4.60
2015,04,25,00,46,4.60
2015,04,25,00,47,4.60
2015,04,25,00,48,4.60
2015,04,25,00,49,4.60
2015,04,25,00,50,4.60
2015,04,25,00,51,4.60
2015,04,25,00,52,4.60
2015,04,25,00,53,4.60
2015,04,25,00,54,4.60
2015,04,25,00,55,4.50
2015,04,25,00,56,4.50
2015,04,25,00,57,4.40
2015,04,25,00,58,4.40
2015,04,25,00,59,4.40
2015,04,25,01,00,4.40
2015,04,25,01,01,4.40
2015,04,25,01,02,4.40
2015,04,25,01,03,4.40
2015,04,25,01,04,4.40
2015,04,25,01,05,4.40
2015,04,25,01,06,4.40
2015,04,25,01,07,4.40
2015,04,25,01,08,4.40
2015,04,25,01,09,4.40
2015,04,25,01,10,4.40
2015,04,25,01,11,4.40
2015,04,25,01,12,4.40
2015,04,25,01,13,4.40
2015,04,25,01,14,4.30
2015,04,25,01,15,4.30
2015,04,25,01,16,4.30
2015,04,25,01,17,4.30
2015,04,25,01,18,4.30
2015,04,25,01,19,4.30
2015,04,25,01,20,4.30
2015,04,25,01,21,4.30
2015,04,25,01,22,4.30
2015,04,25,01,23,4.30
2015,04,25,01,24,4.30
2015,04,25,01,25,4.30
2015,04,25,01,26,4.30
2015,04,25,01,27,4.30
2015,04,25,01,28,4.30
2015,04,25,01,29,4.30
2015,04,25,01,30,4.30
2015,04,25,01,31,4.30
2015,04,25,01,32,4.30
2015,04,25,01,33,4.30
2015,04,25,01,34,4.30
2015,04,25,01,35,4.30
2015,04,25,01,36,4.30
2015,04,25,01,37,4.30
2015,04,25,01,38,4.30
2015,04,25,01,39,4.30
2015,04,25,01,40,4.30
2015,04,25,01,41,4.30
2015,04,25,01,42,4.30
2015,04,25,01,43,4.30
2015,04,25,01,44,4.30
2015,04,25,01,45,4.30
2015,04,25,01,46,4.30
2015,04,25,01,47,4.20
2015,04,25,01,48,4.30
2015,04,25,01,49,4.30
2015,04,25,01,50,4.30
2015,04,25,01,51,4.30
2015,04,25,01,52,4.30
2015,04,25,01,53,4.30
2015,04,25,01,54,4.30
2015,04,25,01,55,4.30
2015,04,25,01,56,4.30
2015,04,25,01,57,4.30
2015,04,25,01,58,4.30
2015,04,25,01,59,4.40
2015,04,25,02,00,4.40
2015,04,25,02,01,4.40
2015,04,25,02,02,4.40
2015,04,25,02,03,4.40
2015,04,25,02,04,4.40
2015,04,25,02,05,4.40
2015,04,25,02,06,4.40
2015,04,25,02,07,4.40
2015,04,25,02,08,4.40
2015,04,25,02,09,4.40
2015,04,25,02,10,4.40
2015,04,25,02,11,4.40
2015,04,25,02,12,4.40
2015,04,25,02,13,4.40
2015,04,25,02,14,4.40
2015,04,25,02,15,4.40
2015,04,25,02,16,4.40
2015,04,25,02,17,4.40
2015,04,25,02,18,4.40
2015,04,25,02,19,4.40
2015,04,25,02,20,4.40
2015,04,25,02,21,4.40
2015,04,25,02,22,4.40
2015,04,25,02,23,4.40
2015,04,25,02,24,4.40
2015,04,25,02,25,4.40
2015,04,25,02,26,4.40
2015,04,25,02,27,4.40
2015,04,25,02,28,4.40
2015,04,25,02,29,4.30
2015,04,25,02,30,4.30
2015,04,25,02,31,4.30
2015,04,25,02,32,4.30
2015,04,25,02,33,4.30
2015,04,25,02,34,4.30
2015,04,25,02,35,4.30
2015,04,25,02,36,4.30
2015,04,25,02,37,4.30
2015,04,25,02,38,4.30
2015,04,25,02,39,4.20
2015,04,25,02,40,4.20
2015,04,25,02,41,4.20
2015,04,25,02,42,4.20
2015,04,25,02,43,4.20
2015,04,25,02,44,4.20
2015,04,25,02,45,4.20
2015,04,25,02,46,4.20
2015,04,25,02,47,4.20
2015,04,25,02,48,4.20
2015,04,25,02,49,4.20
2015,04,25,02,50,4.20
2015,04,25,02,51,4.20
2015,04,25,02,52,4.20
2015,04,25,02,53,4.20
2015,04,25,02,54,4.20
2015,04,25,02,55,4.20
2015,04,25,02,56,4.20
2015,04,25,02,57,4.20
2015,04,25,02,58,4.20
2015,04,25,02,59,4.20
2015,04,25,03,00,4.20
2015,04,25,03,01,4.20
2015,04,25,03,02,4.20
2015,04,25,03,03,4.20
2015,04,25,03,04,4.20
2015,04,25,03,05,4.20
2015,04,25,03,06,4.30
2015,04,25,03,07,4.20
2015,04,25,03,08,4.30
2015,04,25,03,09,4.30
2015,04,25,03,10,4.30
2015,04,25,03,11,4.30
2015,04,25,03,12,4.30
2015,04,25,03,13,4.30
2015,04,25,03,14,4.30
2015,04,25,03,15,4.30
2015,04,25,03,16,4.30
2015,04,25,03,17,4.30
2015,04,25,03,18,4.30
2015,04,25,03,19,4.30
2015,04,25,03,20,4.30
2015,04,25,03,21,4.40
2015,04,25,03,22,4.40
2015,04,25,03,23,4.40
2015,04,25,03,24,4.40
2015,04,25,03,25,4.40
2015,04,25,03,26,4.40
2015,04,25,03,27,4.40
2015,04,25,03,28,4.50
2015,04,25,03,29,4.50
2015,04,25,03,30,4.50
2015,04,25,03,31,4.50
2015,04,25,03,32,4.50
2015,04,25,03,33,4.60
2015,04,25,03,34,4.60
2015,04,25,03,35,4.60
2015,04,25,03,36,4.60
2015,04,25,03,37,4.60
2015,04,25,03,38,4.60
2015,04,25,03,39,4.60
2015,04,25,03,40,4.60
2015,04,25,03,41,4.60
2015,04,25,03,42,4.60
2015,04,25,03,43,4.60
2015,04,25,03,44,4.60
2015,04,25,03,45,4.60
2015,04,25,03,46,4.60
2015,04,25,03,47,4.60
2015,04,25,03,48,4.60
2015,04,25,03,49,4.60
2015,04,25,03,50,4.70
2015,04,25,03,51,4.70
2015,04,25,03,52,4.70
2015,04,25,03,53,4.70
2015,04,25,03,54,4.70
2015,04,25,03,55,4.70
2015,04,25,03,56,4.70
2015,04,25,03,57,4.70
2015,04,25,03,58,4.70
2015,04,25,03,59,4.70
2015,04,25,04,00,4.70
2015,04,25,04,01,4.70
2015,04,25,04,02,4.70
2015,04,25,04,03,4.70
2015,04,25,04,04,4.70
2015,04,25,04,05,4.70
2015,04,25,04,06,4.70
2015,04,25,04,07,4.70
2015,04,25,04,08,4.70
2015,04,25,04,09,4.80
2015,04,25,04,10,4.70
2015,04,25,04,11,4.80
2015,04,25,04,12,4.80
2015,04,25,04,13,4.80
2015,04,25,04,14,4.80
2015,04,25,04,15,4.80
2015,04,25,04,16,4.80
2015,04,25,04,17,4.80
2015,04,25,04,18,4.80
2015,04,25,04,19,4.80
2015,04,25,04,20,4.80
2015,04,25,04,21,4.80
2015,04,25,04,22,4.80
2015,04,25,04,23,4.80
2015,04,25,04,24,4.80
2015,04,25,04,25,4.80
2015,04,25,04,26,4.80
2015,04,25,04,27,4.80
2015,04,25,04,28,4.80
2015,04,25,04,29,4.80
2015,04,25,04,30,4.80
2015,04,25,04,31,4.80
2015,04,25,04,32,4.80
2015,04,25,04,33,4.80
2015,04,25,04,34,4.80
2015,04,25,04,35,4.80
2015,04,25,04,36,4.80
2015,04,25,04,37,4.80
2015,04,25,04,38,4.80
2015,04,25,04,39,4.80
2015,04,25,04,40,4.80
2015,04,25,04,41,4.80
2015,04,25,04,42,4.80
2015,04,25,04,43,4.80
2015,04,25,04,44,4.80
2015,04,25,04,45,4.80
2015,04,25,04,46,4.80
2015,04,25,04,47,4.80
2015,04,25,04,48,4.80
2015,04,25,04,49,4.80
2015,04,25,04,50,4.80
2015,04,25,04,51,4.80
2015,04,25,04,52,4.90
2015,04,25,04,53,4.90
2015,04,25,04,54,4.90
2015,04,25,04,55,4.90
2015,04,25,04,56,4.90
2015,04,25,04,57,4.90
2015,04,25,04,58,4.90
2015,04,25,04,59,4.90
2015,04,25,05,00,4.90
2015,04,25,05,01,4.90
2015,04,25,05,02,4.90
2015,04,25,05,03,4.90
2015,04,25,05,04,4.90
2015,04,25,05,05,4.90
2015,04,25,05,06,4.90
2015,04,25,05,07,4.90
2015,04,25,05,08,4.90
2015,04,25,05,09,4.90
2015,04,25,05,10,4.90
2015,04,25,05,11,4.90
2015,04,25,05,12,4.90
2015,04,25,05,13,4.90
2015,04,25,05,14,4.90
2015,04,25,05,15,4.90
2015,04,25,05,16,4.90
2015,04,25,05,17,4.90
2015,04,25,05,18,4.90
2015,04,25,05,19,4.90
2015,04,25,05,20,4.90
2015,04,25,05,21,4.90
2015,04,25,05,22,4.90
2015,04,25,05,23,4.90
2015,04,25,05,24,4.90
2015,04,25,05,25,4.90
2015,04,25,05,26,4.90
2015,04,25,05,27,4.90
2015,04,25,05,28,4.90
2015,04,25,05,29,4.90
2015,04,25,05,30,4.90
2015,04,25,05,31,4.90
2015,04,25,05,32,4.90
2015,04,25,05,33,4.90
2015,04,25,05,34,4.90
2015,04,25,05,35,4.90
2015,04,25,05,36,4.90
2015,04,25,05,37,4.90
2015,04,25,05,38,4.90
2015,04,25,05,39,4.90
2015,04,25,05,40,4.80
2015,04,25,05,41,4.80
2015,04,25,05,42,4.80
2015,04,25,05,43,4.80
2015,04,25,05,44,4.80
2015,04,25,05,45,4.80
2015,04,25,05,46,4.80
2015,04,25,05,47,4.80
2015,04,25,05,48,4.80
2015,04,25,05,49,4.80
2015,04,25,05,50,4.80
2015,04,25,05,51,4.80
2015,04,25,05,52,4.80
2015,04,25,05,53,4.80
2015,04,25,05,54,4.80
2015,04,25,05,55,4.80
2015,04,25,05,56,4.80
2015,04,25,05,57,4.80
2015,04,25,05,58,4.80
2015,04,25,05,59,4.80
2015,04,25,06,00,4.90
2015,04,25,06,01,4.90
2015,04,25,06,02,4.90
2015,04,25,06,03,4.90
2015,04,25,06,04,4.90
2015,04,25,06,05,4.90
2015,04,25,06,06,4.90
2015,04,25,06,07,4.90
2015,04,25,06,08,4.90
2015,04,25,06,09,4.90
2015,04,25,06,10,4.90
2015,04,25,06,11,4.90
2015,04,25,06,12,4.90
2015,04,25,06,13,4.90
2015,04,25,06,14,4.90
2015,04,25,06,15,4.90
2015,04,25,06,16,4.90
2015,04,25,06,17,4.90
2015,04,25,06,18,4.90
2015,04,25,06,19,4.90
2015,04,25,06,20,4.90
2015,04,25,06,21,4.90
2015,04,25,06,22,4.90
2015,04,25,06,23,4.90
2015,04,25,06,24,4.90
2015,04,25,06,25,4.90
2015,04,25,06,26,4.90
2015,04,25,06,27,4.90
2015,04,25,06,28,4.90
2015,04,25,06,29,4.90
2015,04,25,06,30,4.90
2015,04,25,06,31,4.90
2015,04,25,06,32,4.90
2015,04,25,06,33,4.90
2015,04,25,06,34,4.90
2015,04,25,06,35,4.90
2015,04,25,06,36,4.90
2015,04,25,06,37,4.90
2015,04,25,06,38,4.90
2015,04,25,06,39,4.90
2015,04,25,06,40,4.90
2015,04,25,06,41,4.90
2015,04,25,06,42,4.90
2015,04,25,06,43,4.90
2015,04,25,06,44,4.90
2015,04,25,06,45,4.90
2015,04,25,06,46,4.90
2015,04,25,06,47,4.90
2015,04,25,06,48,4.90
2015,04,25,06,49,4.90
2015,04,25,06,50,4.90
2015,04,25,06,51,4.90
2015,04,25,06,52,4.90
2015,04,25,06,53,4.90
2015,04,25,06,54,4.90
2015,04,25,06,55,5.00
2015,04,25,06,56,5.00
2015,04,25,06,57,5.00
2015,04,25,06,58,5.00
2015,04,25,06,59,5.00
2015,04,25,07,00,5.00
2015,04,25,07,01,5.00
2015,04,25,07,02,5.10
2015,04,25,07,03,5.10
2015,04,25,07,04,5.10
2015,04,25,07,05,5.10
2015,04,25,07,06,5.10
2015,04,25,07,07,5.10
2015,04,25,07,08,5.10
2015,04,25,07,09,5.10
2015,04,25,07,10,5.10
2015,04,25,07,11,5.10
2015,04,25,07,12,5.10
2015,04,25,07,13,5.10
2015,04,25,07,14,5.10
2015,04,25,07,15,5.10
2015,04,25,07,16,5.10
2015,04,25,07,17,5.10
2015,04,25,07,18,5.10
2015,04,25,07,19,5.10
2015,04,25,07,20,5.10
2015,04,25,07,21,5.10
2015,04,25,07,22,5.10
2015,04,25,07,23,5.10
2015,04,25,07,24,5.10
2015,04,25,07,25,5.10
2015,04,25,07,26,5.10
2015,04,25,07,27,5.20
2015,04,25,07,28,5.20
2015,04,25,07,29,5.20
2015,04,25,07,30,5.20
2015,04,25,07,31,5.20
2015,04,25,07,32,5.20
2015,04,25,07,33,5.20
2015,04,25,07,34,5.20
2015,04,25,07,35,5.20
2015,04,25,07,36,5.20
2015,04,25,07,37,5.20
2015,04,25,07,38,5.20
2015,04,25,07,39,5.20
2015,04,25,07,40,5.20
2015,04,25,07,41,5.30
2015,04,25,07,42,5.30
2015,04,25,07,43,5.30
2015,04,25,07,44,5.30
2015,04,25,07,45,5.30
2015,04,25,07,46,5.30
2015,04,25,07,47,5.30
2015,04,25,07,48,5.30
2015,04,25,07,49,5.30
2015,04,25,07,50,5.30
2015,04,25,07,51,5.30
2015,04,25,07,52,5.40
2015,04,25,07,53,5.40
2015,04,25,07,54,5.40
2015,04,25,07,55,5.40
2015,04,25,07,56,5.40
2015,04,25,07,57,5.40
2015,04,25,07,58,5.40
2015,04,25,07,59,5.40
2015,04,25,08,00,5.50
2015,04,25,08,01,5.50
2015,04,25,08,02,5.50
2015,04,25,08,03,5.50
2015,04,25,08,04,5.50
2015,04,25,08,05,5.50
2015,04,25,08,06,5.50
2015,04,25,08,07,5.60
2015,04,25,08,08,5.60
2015,04,25,08,09,5.60
2015,04,25,08,10,5.60
2015,04,25,08,11,5.60
2015,04,25,08,12,5.60
2015,04,25,08,13,5.60
2015,04,25,08,14,5.60
2015,04,25,08,15,5.70
2015,04,25,08,16,5.70
2015,04,25,08,17,5.70
2015,04,25,08,18,5.70
2015,04,25,08,19,5.70
2015,04,25,08,20,5.70
2015,04,25,08,21,5.80
2015,04,25,08,22,5.80
2015,04,25,08,23,5.80
2015,04,25,08,24,5.80
2015,04,25,08,25,5.80
2015,04,25,08,26,5.80
2015,04,25,08,27,5.80
2015,04,25,08,28,5.80
2015,04,25,08,29,5.90
2015,04,25,08,30,5.90
2015,04,25,08,31,5.90
2015,04,25,08,32,5.90
2015,04,25,08,33,5.90
2015,04,25,08,34,5.90
2015,04,25,08,35,5.90
2015,04,25,08,36,5.90
2015,04,25,08,37,6.00
2015,04,25,08,38,6.00
2015,04,25,08,39,6.00
2015,04,25,08,40,6.00
2015,04,25,08,41,6.00
2015,04,25,08,42,6.00
2015,04,25,08,43,6.00
2015,04,25,08,44,6.00
2015,04,25,08,45,6.00
2015,04,25,08,46,6.10
2015,04,25,08,47,6.10
2015,04,25,08,48,6.10
2015,04,25,08,49,6.10
2015,04,25,08,50,6.10
2015,04,25,08,51,6.10
2015,04,25,08,52,6.10
2015,04,25,08,53,6.20
2015,04,25,08,54,6.20
2015,04,25,08,55,6.20
2015,04,25,08,56,6.20
2015,04,25,08,57,6.20
2015,04,25,08,58,6.20
2015,04,25,08,59,6.20
2015,04,25,09,00,6.30
2015,04,25,09,01,6.30
2015,04,25,09,02,6.30
2015,04,25,09,03,6.30
2015,04,25,09,04,6.30
2015,04,25,09,05,6.30
2015,04,25,09,06,6.30
2015,04,25,09,07,6.30
2015,04,25,09,08,6.30
2015,04,25,09,09,6.30
2015,04,25,09,10,6.30
2015,04,25,09,11,6.30
2015,04,25,09,12,6.30
2015,04,25,09,13,6.30
2015,04,25,09,14,6.30
2015,04,25,09,15,6.30
2015,04,25,09,16,6.30
2015,04,25,09,17,6.30
2015,04,25,09,18,6.30
2015,04,25,09,19,6.30
2015,04,25,09,20,6.30
2015,04,25,09,21,6.30
2015,04,25,09,22,6.30
2015,04,25,09,23,6.40
2015,04,25,09,24,6.40
2015,04,25,09,25,6.40
2015,04,25,09,26,6.40
2015,04,25,09,27,6.50
2015,04,25,09,28,6.60
2015,04,25,09,29,6.60
2015,04,25,09,30,6.60
2015,04,25,09,31,6.70
2015,04,25,09,32,6.70
2015,04,25,09,33,6.80
2015,04,25,09,34,6.80
2015,04,25,09,35,6.90
2015,04,25,09,36,6.90
2015,04,25,09,37,6.90
2015,04,25,09,38,7.00
2015,04,25,09,39,7.10
2015,04,25,09,40,7.10
2015,04,25,09,41,7.10
2015,04,25,09,42,7.20
2015,04,25,09,43,7.20
2015,04,25,09,44,7.20
2015,04,25,09,45,7.30
2015,04,25,09,46,7.30
2015,04,25,09,47,7.30
2015,04,25,09,48,7.40
2015,04,25,09,49,7.40
2015,04,25,09,50,7.40
2015,04,25,09,51,7.40
2015,04,25,09,52,7.40
2015,04,25,09,53,7.50
2015,04,25,09,54,7.50
2015,04,25,09,55,7.60
2015,04,25,09,56,7.60
2015,04,25,09,57,7.60
2015,04,25,09,58,7.60
2015,04,25,09,59,7.60
2015,04,25,10,00,7.60
2015,04,25,10,01,7.60
2015,04,25,10,02,7.60
2015,04,25,10,03,7.60
2015,04,25,10,04,7.60
2015,04,25,10,05,7.70
2015,04,25,10,06,7.70
2015,04,25,10,07,7.70
2015,04,25,10,08,7.70
2015,04,25,10,09,7.80
2015,04,25,10,10,7.80
2015,04,25,10,11,7.90
2015,04,25,10,12,7.90
2015,04,25,10,13,8.00
2015,04,25,10,14,8.10
2015,04,25,10,15,8.20
2015,04,25,10,16,8.20
2015,04,25,10,17,8.20
2015,04,25,10,18,8.20
2015,04,25,10,19,8.30
2015,04,25,10,20,8.20
2015,04,25,10,21,8.20
2015,04,25,10,22,8.20
2015,04,25,10,23,8.20
2015,04,25,10,24,8.20
2015,04,25,10,25,8.20
2015,04,25,10,26,8.20
2015,04,25,10,27,8.20
2015,04,25,10,28,8.20
2015,04,25,10,29,8.30
2015,04,25,10,30,8.30
2015,04,25,10,31,8.40
2015,04,25,10,32,8.40
2015,04,25,10,33,8.60
2015,04,25,10,34,8.70
2015,04,25,10,35,8.80
2015,04,25,10,36,8.90
2015,04,25,10,37,9.00
2015,04,25,10,38,9.10
2015,04,25,10,39,9.20
2015,04,25,10,40,9.20
2015,04,25,10,41,9.20
2015,04,25,10,42,9.30
2015,04,25,10,43,9.30
2015,04,25,10,44,9.30
2015,04,25,10,45,9.40
2015,04,25,10,46,9.40
2015,04,25,10,47,9.60
2015,04,25,10,48,9.60
2015,04,25,10,49,9.60
2015,04,25,10,50,9.70
2015,04,25,10,51,9.70
2015,04,25,10,52,9.70
2015,04,25,10,53,9.80
2015,04,25,10,54,9.80
2015,04,25,10,55,9.80
2015,04,25,10,56,9.80
2015,04,25,10,57,9.80
2015,04,25,10,58,9.70
2015,04,25,10,59,9.70
2015,04,25,11,00,9.60
2015,04,25,11,01,9.60
2015,04,25,11,02,9.60
2015,04,25,11,03,9.60
2015,04,25,11,04,9.60
2015,04,25,11,05,9.60
2015,04,25,11,06,9.60
2015,04,25,11,07,9.60
2015,04,25,11,08,9.60
2015,04,25,11,09,9.70
2015,04,25,11,10,9.70
2015,04,25,11,11,9.80
2015,04,25,11,12,9.80
2015,04,25,11,13,9.80
2015,04,25,11,14,9.90
2015,04,25,11,15,9.90
2015,04,25,11,16,9.90
2015,04,25,11,17,10.00
2015,04,25,11,18,10.00
2015,04,25,11,19,9.90
2015,04,25,11,20,9.90
2015,04,25,11,21,10.00
2015,04,25,11,22,10.10
2015,04,25,11,23,10.20
2015,04,25,11,24,10.20
2015,04,25,11,25,10.30
2015,04,25,11,26,10.30
2015,04,25,11,27,10.30
2015,04,25,11,28,10.40
2015,04,25,11,29,10.40
2015,04,25,11,30,10.50
2015,04,25,11,31,10.60
2015,04,25,11,32,10.60
2015,04,25,11,33,10.60
2015,04,25,11,34,10.60
2015,04,25,11,35,10.60
2015,04,25,11,36,10.60
2015,04,25,11,37,10.60
2015,04,25,11,38,10.60
2015,04,25,11,39,10.70
2015,04,25,11,40,10.70
2015,04,25,11,41,10.70
2015,04,25,11,42,10.80
2015,04,25,11,43,10.80
2015,04,25,11,44,10.90
2015,04,25,11,45,10.90
2015,04,25,11,46,10.90
2015,04,25,11,47,10.90
2015,04,25,11,48,11.00
2015,04,25,11,49,11.10
2015,04,25,11,50,11.10
2015,04,25,11,51,11.10
2015,04,25,11,52,11.10
2015,04,25,11,53,11.10
2015,04,25,11,54,11.20
2015,04,25,11,55,11.20
2015,04,25,11,56,11.30
2015,04,25,11,57,11.30
2015,04,25,11,58,11.40
2015,04,25,11,59,11.40
2015,04,25,12,00,11.50
2015,04,25,12,01,11.60
2015,04,25,12,02,11.70
2015,04,25,12,03,11.80
2015,04,25,12,04,11.80
2015,04,25,12,05,11.90
2015,04,25,12,06,11.90
2015,04,25,12,07,11.90
2015,04,25,12,08,11.90
2015,04,25,12,09,11.90
2015,04,25,12,10,11.90
2015,04,25,12,11,11.80
2015,04,25,12,12,11.80
2015,04,25,12,13,11.80
2015,04,25,12,14,11.80
2015,04,25,12,15,11.80
2015,04,25,12,16,11.80
2015,04,25,12,17,11.80
2015,04,25,12,18,11.80
2015,04,25,12,19,11.90
2015,04,25,12,20,11.90
2015,04,25,12,21,11.90
2015,04,25,12,22,11.90
2015,04,25,12,23,11.90
2015,04,25,12,24,12.00
2015,04,25,12,25,12.10
2015,04,25,12,26,12.10
2015,04,25,12,27,12.20
2015,04,25,12,28,12.30
2015,04,25,12,29,12.40
2015,04,25,12,30,12.60
2015,04,25,12,31,12.70
2015,04,25,12,32,12.80
2015,04,25,12,33,12.90
2015,04,25,12,34,13.10
2015,04,25,12,35,13.20
2015,04,25,12,36,13.30
2015,04,25,12,37,13.40
2015,04,25,12,38,13.50
2015,04,25,12,39,13.60
2015,04,25,12,40,13.60
2015,04,25,12,41,13.60
2015,04,25,12,42,13.60
2015,04,25,12,43,13.70
2015,04,25,12,44,13.70
2015,04,25,12,45,13.70
2015,04,25,12,46,13.70
2015,04,25,12,47,13.70
2015,04,25,12,48,13.60
2015,04,25,12,49,13.40
2015,04,25,12,50,13.40
2015,04,25,12,51,13.40
2015,04,25,12,52,13.50
2015,04,25,12,53,13.60
2015,04,25,12,54,13.70
2015,04,25,12,55,13.80
2015,04,25,12,56,13.90
2015,04,25,12,57,13.90
2015,04,25,12,58,14.10
2015,04,25,12,59,14.10
2015,04,25,13,00,14.20
2015,04,25,13,01,14.20
2015,04,25,13,02,14.20
2015,04,25,13,03,14.20
2015,04,25,13,04,14.10
2015,04,25,13,05,14.10
2015,04,25,13,06,14.10
2015,04,25,13,07,14.20
2015,04,25,13,08,14.10
2015,04,25,13,09,14.10
2015,04,25,13,10,14.10
2015,04,25,13,11,14.20
2015,04,25,13,12,14.20
2015,04,25,13,13,14.30
2015,04,25,13,14,14.30
2015,04,25,13,15,14.40
2015,04,25,13,16,14.60
2015,04,25,13,17,14.60
2015,04,25,13,18,14.70
2015,04,25,13,19,14.60
2015,04,25,13,20,14.60
2015,04,25,13,21,14.60
2015,04,25,13,22,14.60
2015,04,25,13,23,14.70
2015,04,25,13,24,14.80
2015,04,25,13,25,14.90
2015,04,25,13,26,15.10
2015,04,25,13,27,15.00
2015,04,25,13,28,14.90
2015,04,25,13,29,14.80
2015,04,25,13,30,14.80
2015,04,25,13,31,14.80
2015,04,25,13,32,14.80
2015,04,25,13,33,14.80
2015,04,25,13,34,14.90
2015,04,25,13,35,15.10
2015,04,25,13,36,15.10
2015,04,25,13,37,15.00
2015,04,25,13,38,14.90
2015,04,25,13,39,14.90
2015,04,25,13,40,15.10
2015,04,25,13,41,15.20
2015,04,25,13,42,15.20
2015,04,25,13,43,15.30
2015,04,25,13,44,15.40
2015,04,25,13,45,15.50
2015,04,25,13,46,15.50
2015,04,25,13,47,15.60
2015,04,25,13,48,15.70
2015,04,25,13,49,15.70
2015,04,25,13,50,15.60
2015,04,25,13,51,15.60
2015,04,25,13,52,15.70
2015,04,25,13,53,15.80
2015,04,25,13,54,15.90
2015,04,25,13,55,15.90
2015,04,25,13,56,15.90
2015,04,25,13,57,15.70
2015,04,25,13,58,15.60
2015,04,25,13,59,15.40
2015,04,25,14,00,15.30
2015,04,25,14,01,15.30
2015,04,25,14,02,15.40
2015,04,25,14,03,15.40
2015,04,25,14,04,15.40
2015,04,25,14,05,15.30
2015,04,25,14,06,15.30
2015,04,25,14,07,15.20
2015,04,25,14,08,15.20
2015,04,25,14,09,15.20
2015,04,25,14,10,15.20
2015,04,25,14,11,15.20
2015,04,25,14,12,15.20
2015,04,25,14,13,15.30
2015,04,25,14,14,15.30
2015,04,25,14,15,15.40
2015,04,25,14,16,15.50
2015,04,25,14,17,15.60
2015,04,25,14,18,15.60
2015,04,25,14,19,15.70
2015,04,25,14,20,15.70
2015,04,25,14,21,15.90
2015,04,25,14,22,16.00
2015,04,25,14,23,16.10
2015,04,25,14,24,16.20
2015,04,25,14,25,16.30
2015,04,25,14,26,16.40
2015,04,25,14,27,16.50
2015,04,25,14,28,16.50
2015,04,25,14,29,16.50
2015,04,25,14,30,16.50
2015,04,25,14,31,16.60
2015,04,25,14,32,16.60
2015,04,25,14,33,16.60
2015,04,25,14,34,16.60
2015,04,25,14,35,16.60
2015,04,25,14,36,16.50
2015,04,25,14,37,16.40
2015,04,25,14,38,16.40
2015,04,25,14,39,16.40
2015,04,25,14,40,16.40
2015,04,25,14,41,16.30
2015,04,25,14,42,16.30
2015,04,25,14,43,16.30
2015,04,25,14,44,16.30
2015,04,25,14,45,16.30
2015,04,25,14,46,16.10
2015,04,25,14,47,16.20
2015,04,25,14,48,16.20
2015,04,25,14,49,16.20
2015,04,25,14,50,16.30
2015,04,25,14,51,16.30
2015,04,25,14,52,16.40
2015,04,25,14,53,16.50
2015,04,25,14,54,16.60
2015,04,25,14,55,16.70
2015,04,25,14,56,16.70
2015,04,25,14,57,16.70
2015,04,25,14,58,16.70
2015,04,25,14,59,16.60
2015,04,25,15,00,16.60
2015,04,25,15,01,16.60
2015,04,25,15,02,16.70
2015,04,25,15,03,16.80
2015,04,25,15,04,16.80
2015,04,25,15,05,17.00
2015,04,25,15,06,17.10
2015,04,25,15,07,17.20
2015,04,25,15,08,17.30
2015,04,25,15,09,17.30
2015,04,25,15,10,17.30
2015,04,25,15,11,17.40
2015,04,25,15,12,17.40
2015,04,25,15,13,17.50
2015,04,25,15,14,17.60
2015,04,25,15,15,17.60
2015,04,25,15,16,17.70
2015,04,25,15,17,17.70
2015,04,25,15,18,17.80
2015,04,25,15,19,17.80
2015,04,25,15,20,17.80
2015,04,25,15,21,17.90
2015,04,25,15,22,17.90
2015,04,25,15,23,18.00
2015,04,25,15,24,18.10
2015,04,25,15,25,18.10
2015,04,25,15,26,18.10
2015,04,25,15,27,18.10
2015,04,25,15,28,18.20
2015,04,25,15,29,18.20
2015,04,25,15,30,18.20
2015,04,25,15,31,18.00
2015,04,25,15,32,17.70
2015,04,25,15,33,17.30
2015,04,25,15,34,16.80
2015,04,25,15,35,16.40
2015,04,25,15,36,16.00
2015,04,25,15,37,15.80
2015,04,25,15,38,15.70
2015,04,25,15,39,15.80
2015,04,25,15,40,15.80
2015,04,25,15,41,15.80
2015,04,25,15,42,15.70
2015,04,25,15,43,15.60
2015,04,25,15,44,15.50
2015,04,25,15,45,15.40
2015,04,25,15,46,15.30
2015,04,25,15,47,15.20
2015,04,25,15,48,15.20
2015,04,25,15,49,15.20
2015,04,25,15,50,15.20
2015,04,25,15,51,15.10
2015,04,25,15,52,15.10
2015,04,25,15,53,15.10
2015,04,25,15,54,15.10
2015,04,25,15,55,15.10
2015,04,25,15,56,15.00
2015,04,25,15,57,15.00
2015,04,25,15,58,15.00
2015,04,25,15,59,15.00
2015,04,25,16,00,14.90
2015,04,25,16,01,14.80
2015,04,25,16,02,14.80
2015,04,25,16,03,14.80
2015,04,25,16,04,14.80
2015,04,25,16,05,14.80
2015,04,25,16,06,14.80
2015,04,25,16,07,14.80
2015,04,25,16,08,14.80
2015,04,25,16,09,14.80
2015,04,25,16,10,14.80
2015,04,25,16,11,14.90
2015,04,25,16,12,14.90
2015,04,25,16,13,14.90
2015,04,25,16,14,14.90
2015,04,25,16,15,14.90
2015,04,25,16,16,14.90
2015,04,25,16,17,14.90
2015,04,25,16,18,14.90
2015,04,25,16,19,14.90
2015,04,25,16,20,14.90
2015,04,25,16,21,14.80
2015,04,25,16,22,14.70
2015,04,25,16,23,14.70
2015,04,25,16,24,14.60
2015,04,25,16,25,14.60
2015,04,25,16,26,14.60
2015,04,25,16,27,14.50
2015,04,25,16,28,14.50
2015,04,25,16,29,14.40
2015,04,25,16,30,14.40
2015,04,25,16,31,14.40
2015,04,25,16,32,14.30
2015,04,25,16,33,14.40
2015,04,25,16,34,14.40
2015,04,25,16,35,14.50
2015,04,25,16,36,14.60
2015,04,25,16,37,14.60
2015,04,25,16,38,14.60
2015,04,25,16,39,14.50
2015,04,25,16,40,14.50
2015,04,25,16,41,14.40
2015,04,25,16,42,14.30
2015,04,25,16,43,14.30
2015,04,25,16,44,14.20
2015,04,25,16,45,14.20
2015,04,25,16,46,14.20
2015,04,25,16,47,14.20
2015,04,25,16,48,14.20
2015,04,25,16,49,14.30
2015,04,25,16,50,14.30
2015,04,25,16,51,14.30
2015,04,25,16,52,14.30
2015,04,25,16,53,14.30
2015,04,25,16,54,14.30
2015,04,25,16,55,14.40
2015,04,25,16,56,14.40
2015,04,25,16,57,14.30
2015,04,25,16,58,14.30
2015,04,25,16,59,14.30
2015,04,25,17,00,14.30
2015,04,25,17,01,14.40
2015,04,25,17,02,14.50
2015,04,25,17,03,14.60
2015,04,25,17,04,14.70
2015,04,25,17,05,14.70
2015,04,25,17,06,14.70
2015,04,25,17,07,14.60
2015,04,25,17,08,14.60
2015,04,25,17,09,14.70
2015,04,25,17,10,14.70
2015,04,25,17,11,14.80
2015,04,25,17,12,14.80
2015,04,25,17,13,14.80
2015,04,25,17,14,14.80
2015,04,25,17,15,14.80
2015,04,25,17,16,14.80
2015,04,25,17,17,14.90
2015,04,25,17,18,14.90
2015,04,25,17,19,14.90
2015,04,25,17,20,14.90
2015,04,25,17,21,14.90
2015,04,25,17,22,14.90
2015,04,25,17,23,14.90
2015,04,25,17,24,14.80
2015,04,25,17,25,14.70
2015,04,25,17,26,14.70
2015,04,25,17,27,14.60
2015,04,25,17,28,14.60
2015,04,25,17,29,14.60
2015,04,25,17,30,14.60
2015,04,25,17,31,14.60
2015,04,25,17,32,14.60
2015,04,25,17,33,14.70
2015,04,25,17,34,14.70
2015,04,25,17,35,14.70
2015,04,25,17,36,14.70
2015,04,25,17,37,14.70
2015,04,25,17,38,14.80
2015,04,25,17,39,14.80
2015,04,25,17,40,14.70
2015,04,25,17,41,14.70
2015,04,25,17,42,14.70
2015,04,25,17,43,14.70
2015,04,25,17,44,14.70
2015,04,25,17,45,14.70
2015,04,25,17,46,14.70
2015,04,25,17,47,14.60
2015,04,25,17,48,14.60